Wind_Speed
28 28 30 33 34 36 36 37 37 37 37 36 35 36 36 35 34 35 34 33 33 32 31 31 32 34 36 38 39 41 41 41 40 38 37 36 35 36
27 27 27 30 32 33 35 36 37 37 37 36 36 36 34 32 30 31 31 31 32 32 31 29 28 32 35 37 38 40 40 40 40 39 38 38 37 36
27 26 25 26 29 31 32 34 35 35 35 35 36 34 32 30 29 28 29 29 29 28 27 27 28 29 31 34 37 40 41 41 42 42 40 40 40 40
27 25 24 24 25 27 30 31 32 33 33 34 34 33 31 30 30 28 28 27 27 27 28 29 30 31 32 34 37 40 41 42 43 42 41 40 40 41
28 26 24 23 23 24 26 27 29 30 30 31 32 32 31 31 31 31 29 27 27 27 27 27 29 29 30 32 35 38 40 41 42 41 41 41 41 41
28 26 24 22 21 21 23 24 26 28 28 29 30 30 31 30 30 29 27 26 25 24 24 23 24 24 24 24 25 27 29 32 33 35 36 38 39 41
28 26 24 21 20 20 21 23 25 26 27 27 28 27 29 29 28 27 26 24 22 21 19 18 17 17 16 17 18 20 22 24 26 28 31 33 35 38
28 26 24 21 19 21 23 24 25 26 27 27 28 29 30 29 28 25 22 20 18 17 15 14 14 15 16 18 20 21 23 25 26 28 31 33 35 37
28 26 24 22 21 21 23 24 26 28 29 28 29 28 27 24 22 19 18 16 15 14 14 14 15 16 18 19 20 21 23 24 26 29 31 34 36 38
29 27 25 22 21 21 22 24 25 26 28 28 27 25 22 19 18 17 17 16 14 14 14 14 15 16 17 18 19 21 22 24 27 29 32 35 37 40
30 28 25 22 22 21 22 23 24 25 25 24 23 20 19 18 18 16 15 14 13 14 14 14 14 15 15 16 18 19 21 23 26 29 32 35 38 41
31 28 26 23 22 22 21 23 23 23 22 21 21 20 19 18 16 15 14 13 13 12 12 12 12 12 12 14 16 18 20 22 25 28 32 35 39 42
32 29 26 24 22 22 22 23 22 22 21 21 20 19 18 16 15 14 13 12 11 10 9 9 9 9 11 12 14 16 19 22 25 27 30 33 36 39
31 28 26 24 23 23 23 23 22 21 20 20 18 17 16 15 14 13 12 10 9 8 8 7 7 8 10 11 13 15 18 21 24 26 28 30 32 34
31 28 25 24 24 24 24 23 23 22 21 19 18 16 15 14 13 12 11 10 10 8 8 7 8 8 9 11 13 15 18 21 23 26 28 30 32 33
29 27 25 23 24 24 23 23 23 22 20 19 17 16 15 14 13 13 12 11 10 9 8 8 8 9 11 12 13 16 18 21 23 26 28 31 32 33
29 27 25 24 25 24 23 23 23 22 20 18 17 16 15 14 13 13 12 12 11 11 10 11 11 11 11 12 14 15 17 20 22 25 28 30 32 33
30 28 26 25 25 23 22 22 22 21 20 18 17 16 16 15 14 14 13 14 13 13 14 14 14 13 13 14 14 15 17 19 22 25 27 30 32 33
30 28 27 26 25 24 23 22 22 21 19 18 18 17 17 16 16 15 16 16 16 16 16 16 16 16 16 16 16 17 18 20 23 26 28 30 32 34
30 29 28 27 26 24 23 22 21 20 19 18 18 18 18 18 18 18 18 19 19 19 19 19 19 19 19 19 19 19 20 21 23 26 28 30 33 35
30 30 28 27 26 25 23 22 21 20 20 19 19 19 19 20 20 20 21 21 22 22 22 21 22 22 22 22 21 21 21 23 25 27 28 31 33 35
31 30 28 26 25 24 23 21 20 20 19 19 20 20 20 20 21 22 23 24 25 25 25 25 25 24 23 23 23 23 24 25 26 27 29 31 33 35
30 29 27 26 25 23 21 20 19 19 19 19 19 20 20 21 22 23 24 26 26 26 27 26 26 26 25 25 25 25 26 28 29 31 32 33 35 37
Wind_Direction
298 286 275 267 262 259 258 258 259 260 262 264 262 262 261 259 258 256 253 252 252 256 256 255 251 245 239 233 230 230 233 235 239 242 246 248 250 252
305 294 281 270 263 259 258 257 258 259 260 260 260 259 257 257 254 251 249 250 252 254 255 259 257 251 242 235 232 230 231 234 238 241 245 247 247 248
309 302 289 275 265 260 257 257 257 257 256 256 255 253 251 249 245 245 246 251 253 254 255 260 261 256 249 241 236 233 232 234 238 242 245 248 248 249
310 304 295 282 269 261 256 255 254 252 252 250 249 247 245 241 240 244 246 249 255 258 259 262 262 260 254 248 242 238 237 238 240 242 245 248 250 252
309 305 297 286 274 265 257 253 251 249 247 244 242 241 241 240 242 246 247 252 258 259 261 263 262 259 255 253 249 245 243 243 243 244 247 249 250 253
304 302 298 289 275 267 258 252 249 246 244 241 240 237 238 241 242 246 251 257 258 260 260 260 257 254 254 253 251 250 251 251 252 252 253 254 255 256
299 297 295 289 276 268 259 252 247 244 239 236 235 237 238 241 242 248 251 251 253 253 251 249 248 247 250 253 255 256 257 257 259 259 259 259 259 260
292 291 290 284 274 267 259 249 243 238 233 233 235 237 240 240 242 246 244 242 241 239 239 241 244 247 250 253 255 257 259 260 262 263 263 263 264 263
283 283 282 276 271 265 257 246 243 240 236 237 237 237 236 235 234 230 228 228 230 236 240 246 250 253 256 259 262 264 267 269 270 270 271 270 270 269
273 273 273 269 263 259 253 246 242 240 238 236 232 230 224 217 215 218 222 225 229 235 241 248 252 257 262 267 271 274 276 278 279 279 278 278 276 275
263 263 263 260 256 253 250 245 239 236 231 225 220 215 212 209 207 212 218 222 228 234 240 248 255 262 268 274 279 282 284 286 286 286 285 284 283 281
255 254 253 252 250 246 244 241 236 229 224 219 213 207 204 203 205 211 217 222 227 235 241 249 258 267 277 283 288 292 294 295 295 294 292 289 287 284
247 246 246 245 242 239 236 233 230 226 220 210 202 199 199 201 205 209 214 220 226 233 240 250 262 274 284 292 298 301 303 304 304 303 301 298 295 291
238 237 238 237 233 230 227 225 221 216 207 199 195 195 197 199 202 204 208 212 216 224 237 250 265 279 290 298 306 312 315 317 318 318 316 314 311 306
229 229 230 229 225 221 218 214 210 203 195 191 192 194 195 196 196 197 199 205 213 225 238 252 268 282 294 304 314 322 328 331 332 332 331 330 327 322
220 221 222 220 216 212 207 203 196 190 188 190 193 194 193 193 194 197 201 210 219 232 246 258 270 282 296 307 317 325 331 336 338 338 337 336 334 330
212 213 213 211 206 201 198 193 189 188 190 193 194 193 193 195 199 204 210 218 228 239 249 258 267 277 290 302 314 322 327 332 337 340 340 338 336 333
205 206 205 202 198 194 191 189 189 191 195 196 196 197 199 202 206 213 220 228 236 245 253 261 267 275 284 295 303 313 322 328 332 334 335 336 337 336
200 200 198 196 194 192 191 192 193 195 198 199 200 203 206 211 216 223 231 238 245 252 259 266 271 276 282 289 297 304 315 323 327 330 332 333 335 336
195 194 193 192 191 191 192 193 196 198 200 202 205 209 214 219 225 233 240 247 253 261 268 273 277 280 285 288 294 301 308 316 322 325 328 331 333 335
190 189 189 190 189 190 192 196 199 202 204 207 211 216 222 228 234 241 248 254 261 267 274 279 282 283 286 287 290 294 301 308 315 320 323 326 329 332
186 186 187 188 188 190 194 198 202 205 209 213 218 224 231 237 243 249 255 261 267 272 277 281 284 285 285 285 286 290 295 301 307 312 317 320 324 328
183 184 185 185 186 190 195 200 204 209 214 220 226 232 238 244 250 257 263 268 273 276 278 281 282 282 282 283 284 288 292 299 305 310 314 318 322 326
Height
5740 5738 5737 5738 5739 5741 5743 5745 5747 5748 5749 5750 5751 5752 5752 5753 5754 5755 5757 5759 5761 5762 5764 5765 5766 5768 5769 5772 5776 5781 5786 5790 5794 5797 5799 5801 5803 5804
5733 5731 5729 5729 5730 5731 5733 5735 5737 5739 5740 5741 5742 5743 5744 5745 5746 5747 5750 5751 5754 5756 5757 5758 5759 5761 5762 5765 5768 5772 5777 5781 5785 5788 5790 5792 5794 5796
5727 5724 5722 5721 5721 5722 5724 5725 5727 5729 5731 5733 5733 5735 5736 5738 5739 5741 5743 5745 5747 5749 5750 5752 5753 5754 5756 5758 5761 5765 5769 5772 5776 5779 5781 5783 5785 5787
5721 5718 5716 5714 5713 5714 5715 5717 5719 5720 5722 5724 5726 5728 5729 5731 5733 5735 5737 5738 5740 5742 5744 5746 5747 5748 5750 5752 5755 5758 5761 5764 5767 5769 5772 5774 5776 5777
5716 5713 5710 5708 5707 5707 5708 5709 5711 5713 5714 5716 5718 5721 5723 5724 5727 5729 5731 5733 5734 5736 5737 5739 5740 5742 5744 5746 5748 5750 5753 5756 5758 5761 5763 5765 5767 5768
5710 5707 5704 5702 5701 5701 5701 5703 5704 5706 5707 5709 5711 5713 5716 5718 5721 5723 5725 5727 5728 5730 5731 5733 5734 5736 5738 5739 5741 5744 5746 5748 5750 5752 5754 5756 5758 5760
5703 5701 5698 5696 5695 5695 5695 5696 5698 5700 5701 5703 5706 5708 5710 5712 5715 5717 5720 5721 5723 5725 5726 5728 5729 5731 5733 5734 5736 5738 5740 5742 5744 5745 5747 5748 5750 5751
5697 5695 5693 5691 5689 5689 5690 5691 5693 5695 5696 5698 5700 5703 5705 5707 5710 5712 5715 5717 5718 5720 5722 5724 5726 5727 5728 5730 5731 5733 5735 5736 5737 5738 5739 5740 5741 5741
5689 5688 5687 5685 5684 5684 5685 5686 5687 5689 5691 5694 5695 5697 5699 5702 5704 5707 5710 5713 5715 5716 5718 5720 5721 5722 5724 5725 5726 5727 5728 5729 5730 5730 5730 5730 5730 5730
5681 5681 5680 5679 5679 5679 5680 5681 5682 5683 5686 5688 5690 5692 5694 5697 5700 5703 5706 5709 5711 5713 5714 5716 5717 5718 5719 5720 5721 5722 5722 5722 5722 5721 5721 5720 5719 5719
5672 5673 5673 5673 5674 5674 5675 5676 5677 5679 5681 5683 5685 5688 5691 5694 5697 5700 5703 5706 5707 5709 5711 5712 5713 5714 5715 5715 5715 5716 5716 5715 5714 5713 5712 5710 5708 5706
5663 5665 5666 5666 5667 5669 5670 5671 5673 5675 5677 5679 5681 5684 5688 5691 5694 5697 5700 5702 5704 5706 5707 5708 5709 5710 5710 5710 5710 5710 5709 5708 5707 5705 5703 5700 5697 5694
5653 5656 5658 5659 5661 5663 5665 5667 5668 5670 5672 5675 5678 5682 5686 5689 5691 5694 5696 5698 5700 5702 5703 5704 5705 5706 5707 5706 5706 5704 5703 5701 5699 5696 5693 5689 5685 5681
5644 5647 5650 5653 5655 5657 5659 5662 5664 5667 5669 5672 5676 5680 5683 5686 5689 5691 5693 5695 5697 5699 5700 5701 5702 5702 5703 5702 5701 5699 5697 5694 5691 5687 5683 5679 5674 5669
5636 5640 5643 5646 5649 5652 5654 5657 5660 5663 5667 5671 5674 5678 5681 5684 5686 5688 5690 5692 5694 5696 5697 5698 5699 5699 5698 5698 5696 5694 5691 5688 5684 5679 5674 5669 5664 5659
5628 5632 5637 5640 5644 5647 5650 5653 5657 5661 5665 5669 5673 5676 5678 5681 5684 5686 5688 5690 5692 5693 5694 5694 5694 5695 5694 5693 5691 5688 5685 5682 5678 5673 5668 5663 5657 5651
5621 5626 5631 5635 5639 5643 5646 5650 5655 5659 5663 5667 5670 5673 5676 5679 5682 5684 5686 5688 5689 5690 5690 5691 5691 5690 5690 5688 5686 5684 5680 5677 5673 5668 5663 5658 5652 5646
5615 5621 5626 5631 5636 5640 5644 5649 5653 5658 5661 5665 5668 5671 5674 5677 5679 5681 5683 5685 5686 5686 5687 5687 5687 5686 5685 5684 5682 5679 5676 5672 5668 5664 5659 5654 5648 5641
5610 5616 5622 5628 5633 5638 5642 5647 5651 5655 5659 5662 5666 5669 5672 5674 5677 5678 5680 5681 5682 5682 5683 5682 5682 5681 5680 5679 5676 5673 5670 5666 5662 5658 5653 5648 5642 5636
5606 5613 5619 5625 5630 5635 5640 5645 5649 5653 5657 5660 5663 5666 5669 5671 5673 5675 5676 5677 5678 5678 5678 5677 5676 5675 5674 5672 5670 5667 5664 5660 5657 5653 5648 5642 5636 5630
5604 5610 5617 5623 5628 5633 5638 5643 5647 5651 5654 5658 5661 5663 5665 5668 5669 5671 5672 5672 5673 5673 5672 5671 5670 5668 5666 5665 5663 5660 5658 5654 5651 5647 5642 5637 5631 5625
5602 5608 5615 5620 5626 5631 5636 5640 5644 5648 5651 5654 5657 5660 5662 5663 5665 5666 5667 5667 5667 5666 5665 5664 5663 5661 5659 5657 5655 5653 5650 5648 5645 5641 5637 5632 5626 5619
5602 5608 5614 5619 5624 5629 5633 5637 5641 5645 5648 5651 5653 5655 5657 5659 5660 5661 5661 5661 5660 5659 5658 5656 5655 5653 5651 5649 5647 5645 5643 5640 5636 5632 5629 5624 5619 5613